| time (UTC) | temp F | wind direction | speed MPH | gust MPH | rain 1hr in | rain 24hr in | rain mn in | humidity % | barometer mb |
| 20260505034809 | 60 | 177 | 2.0 | 5.0 | 0.00 | 0.00 | 0.00 | 73 | 1014.9 |
| 20260505034306 | 60 | 168 | 2.0 | 6.0 | 0.00 | 0.00 | 0.00 | 72 | 1015.0 |
| 20260505033803 | 60 | 173 | 2.0 | 5.0 | 0.00 | 0.00 | 0.00 | 72 | 1015.0 |
| 20260505033259 | 60 | 164 | 4.0 | 6.0 | 0.00 | 0.00 | 0.00 | 71 | 1014.9 |
| 20260505032758 | 60 | 176 | 2.0 | 4.0 | 0.00 | 0.00 | 0.00 | 71 | 1015.0 |
| 20260505032254 | 61 | 158 | 6.0 | 6.0 | 0.00 | 0.00 | 0.00 | 70 | 1015.1 |
| 20260505031751 | 61 | 201 | 2.0 | 8.0 | 0.00 | 0.00 | 0.00 | 69 | 1015.1 |
| 20260505031247 | 60 | 178 | 3.0 | 5.0 | 0.00 | 0.00 | 0.00 | 69 | 1015.3 |
| 20260505030744 | 61 | 145 | 3.0 | 5.0 | 0.00 | 0.00 | 0.00 | 68 | 1015.3 |
| 20260505030240 | 60 | 156 | 2.0 | 5.0 | 0.00 | 0.00 | 0.00 | 68 | 1015.2 |
| 20260505025736 | 61 | 166 | 3.0 | 4.0 | 0.00 | 0.00 | 0.00 | 67 | 1015.1 |
| 20260505025234 | 61 | 157 | 3.0 | 5.0 | 0.00 | 0.00 | 0.00 | 65 | 1015.1 |
| 20260505024732 | 62 | 163 | 2.0 | 5.0 | 0.00 | 0.00 | 0.00 | 64 | 1015.2 |
| 20260505024229 | 62 | 178 | 3.0 | 5.0 | 0.00 | 0.00 | 0.00 | 63 | 1015.2 |
| 20260505023727 | 62 | 180 | 2.0 | 4.0 | 0.00 | 0.00 | 0.00 | 62 | 1015.2 |
| 20260505023224 | 62 | 163 | 3.0 | 4.0 | 0.00 | 0.00 | 0.00 | 62 | 1015.2 |
| 20260505022721 | 62 | 159 | 2.0 | 4.0 | 0.00 | 0.00 | 0.00 | 61 | 1015.4 |
| 20260505022218 | 63 | 160 | 3.0 | 7.0 | 0.00 | 0.00 | 0.00 | 60 | 1015.3 |
| 20260505021714 | 62 | 163 | 3.0 | 5.0 | 0.00 | 0.00 | 0.00 | 61 | 1015.2 |
| 20260505021212 | 62 | 185 | 3.0 | 5.0 | 0.00 | 0.00 | 0.00 | 61 | 1015.3 |
| 20260505020707 | 62 | 177 | 2.0 | 4.0 | 0.00 | 0.00 | 0.00 | 61 | 1015.5 |
| 20260505020203 | 62 | 167 | 4.0 | 5.0 | 0.00 | 0.00 | 0.00 | 61 | 1015.2 |
| 20260505015700 | 62 | 180 | 1.0 | 7.0 | 0.00 | 0.00 | 0.00 | 60 | 1015.3 |
| 20260505015157 | 62 | 145 | 4.0 | 5.0 | 0.00 | 0.00 | 0.00 | 61 | 1015.2 |
| 20260505014654 | 62 | 270 | 0.0 | 5.0 | 0.00 | 0.00 | 0.00 | 62 | 1015.4 |
| 20260505014151 | 62 | 173 | 2.0 | 3.0 | 0.00 | 0.00 | 0.00 | 62 | 1015.5 |
| 20260505013648 | 62 | 156 | 4.0 | 6.0 | 0.00 | 0.00 | 0.00 | 62 | 1015.4 |
| 20260505013145 | 62 | 154 | 3.0 | 6.0 | 0.00 | 0.00 | 0.00 | 62 | 1015.2 |
| 20260505012644 | 62 | 189 | 2.0 | 5.0 | 0.00 | 0.00 | 0.00 | 62 | 1015.3 |
| 20260505012140 | 62 | 180 | 3.0 | 5.0 | 0.00 | 0.00 | 0.00 | 62 | 1015.1 |
| 20260505011636 | 62 | 131 | 3.0 | 8.0 | 0.00 | 0.00 | 0.00 | 62 | 1015.0 |
| 20260505011134 | 62 | 180 | 4.0 | 5.0 | 0.00 | 0.00 | 0.00 | 63 | 1015.0 |
| 20260505010634 | 61 | 156 | 4.0 | 5.0 | 0.00 | 0.00 | 0.00 | 63 | 1015.0 |
| 20260505010131 | 62 | 172 | 2.0 | 6.0 | 0.00 | 0.00 | 0.00 | 62 | 1015.0 |
| 20260505005627 | 62 | 182 | 3.0 | 5.0 | 0.00 | 0.00 | 0.00 | 62 | 1014.9 |
| 20260505005124 | 62 | 270 | 0.0 | 5.0 | 0.00 | 0.00 | 0.00 | 62 | 1014.8 |
| 20260505004621 | 61 | 161 | 4.0 | 5.0 | 0.00 | 0.00 | 0.00 | 63 | 1014.7 |
| 20260505004118 | 61 | 153 | 3.0 | 4.0 | 0.00 | 0.00 | 0.00 | 63 | 1014.8 |
| 20260505003615 | 61 | 182 | 3.0 | 5.0 | 0.00 | 0.00 | 0.00 | 63 | 1014.7 |
| 20260505003113 | 61 | 182 | 3.0 | 6.0 | 0.00 | 0.00 | 0.00 | 63 | 1014.6 |
| 20260505002608 | 61 | 158 | 5.0 | 5.0 | 0.00 | 0.00 | 0.00 | 64 | 1014.8 |
| 20260505002107 | 61 | 180 | 3.0 | 6.0 | 0.00 | 0.00 | 0.00 | 64 | 1014.6 |
| 20260505001604 | 61 | 168 | 2.0 | 4.0 | 0.00 | 0.00 | 0.00 | 64 | 1014.6 |
| 20260505001101 | 61 | 179 | 5.0 | 5.0 | 0.00 | 0.00 | 0.00 | 64 | 1014.6 |
| 20260505000558 | 61 | 170 | 3.0 | 7.0 | 0.00 | 0.00 | 0.00 | 64 | 1014.5 |
| 20260505000056 | 61 | 148 | 4.0 | 4.0 | 0.00 | 0.00 | 0.00 | 64 | 1014.5 |
| 20260504235552 | 61 | 190 | 5.0 | 5.0 | 0.00 | 0.00 | 0.00 | 64 | 1014.5 |
| 20260504235049 | 62 | 172 | 4.0 | 5.0 | 0.00 | 0.00 | 0.00 | 63 | 1014.2 |
| 20260504234546 | 62 | 140 | 3.0 | 6.0 | 0.00 | 0.00 | 0.00 | 62 | 1014.4 |
| 20260504234043 | 62 | 157 | 3.0 | 7.0 | 0.00 | 0.00 | 0.00 | 60 | 1014.2 |
| 20260504233538 | 63 | 160 | 3.0 | 5.0 | 0.00 | 0.00 | 0.00 | 59 | 1014.2 |
| 20260504233035 | 63 | 181 | 6.0 | 9.0 | 0.00 | 0.00 | 0.00 | 58 | 1014.1 |
| 20260504232532 | 63 | 156 | 5.0 | 5.0 | 0.00 | 0.00 | 0.00 | 57 | 1014.3 |
| 20260504232030 | 64 | 180 | 2.0 | 7.0 | 0.00 | 0.00 | 0.00 | 56 | 1014.4 |
| 20260504231526 | 64 | 139 | 4.0 | 5.0 | 0.00 | 0.00 | 0.00 | 55 | 1014.4 |
| 20260504231022 | 64 | 164 | 4.0 | 5.0 | 0.00 | 0.00 | 0.00 | 53 | 1014.2 |
| 20260504230519 | 65 | 176 | 4.0 | 7.0 | 0.00 | 0.00 | 0.00 | 52 | 1013.8 |
| 20260504230018 | 65 | 160 | 5.0 | 5.0 | 0.00 | 0.00 | 0.00 | 52 | 1014.1 |
| 20260504225515 | 66 | 178 | 4.0 | 5.0 | 0.00 | 0.00 | 0.00 | 51 | 1013.9 |
| 20260504225012 | 66 | 179 | 4.0 | 7.0 | 0.00 | 0.00 | 0.00 | 49 | 1013.9 |
| 20260504224509 | 66 | 141 | 3.0 | 5.0 | 0.00 | 0.00 | 0.00 | 49 | 1013.7 |
| 20260504224006 | 66 | 182 | 3.0 | 5.0 | 0.00 | 0.00 | 0.00 | 49 | 1013.9 |
| 20260504223502 | 66 | 182 | 4.0 | 6.0 | 0.00 | 0.00 | 0.00 | 48 | 1013.8 |
| 20260504222957 | 66 | 159 | 5.0 | 11.0 | 0.00 | 0.00 | 0.00 | 47 | 1014.0 |
| 20260504222455 | 66 | 173 | 4.0 | 8.0 | 0.00 | 0.00 | 0.00 | 49 | 1013.9 |
| 20260504221952 | 66 | 187 | 5.0 | 7.0 | 0.00 | 0.00 | 0.00 | 49 | 1014.0 |
| 20260504221449 | 66 | 161 | 6.0 | 9.0 | 0.00 | 0.00 | 0.00 | 50 | 1013.8 |
| 20260504220946 | 66 | 185 | 5.0 | 5.0 | 0.00 | 0.00 | 0.00 | 50 | 1013.8 |
| 20260504220443 | 66 | 157 | 5.0 | 8.0 | 0.00 | 0.00 | 0.00 | 49 | 1014.1 |
| 20260504215940 | 67 | 175 | 5.0 | 8.0 | 0.00 | 0.00 | 0.00 | 48 | 1013.9 |
| 20260504215436 | 67 | 155 | 7.0 | 11.0 | 0.00 | 0.00 | 0.00 | 47 | 1014.0 |
| 20260504214933 | 68 | 188 | 3.0 | 10.0 | 0.00 | 0.00 | 0.00 | 45 | 1014.0 |
| 20260504214429 | 68 | 188 | 4.0 | 6.0 | 0.00 | 0.00 | 0.00 | 45 | 1014.0 |
| 20260504213926 | 68 | 172 | 4.0 | 9.0 | 0.00 | 0.00 | 0.00 | 44 | 1014.0 |
| 20260504213422 | 68 | 237 | 3.0 | 9.0 | 0.00 | 0.00 | 0.00 | 45 | 1013.9 |
| 20260504212920 | 68 | 159 | 10.0 | 10.0 | 0.00 | 0.00 | 0.00 | 44 | 1013.9 |
| 20260504212415 | 68 | 135 | 2.0 | 12.0 | 0.00 | 0.00 | 0.00 | 43 | 1013.8 |
| 20260504211914 | 69 | 194 | 3.0 | 9.0 | 0.00 | 0.00 | 0.00 | 43 | 1014.1 |
| 20260504211410 | 69 | 169 | 5.0 | 8.0 | 0.00 | 0.00 | 0.00 | 44 | 1014.0 |
| 20260504210907 | 68 | 193 | 6.0 | 13.0 | 0.00 | 0.00 | 0.00 | 44 | 1014.0 |
| 20260504210404 | 68 | 163 | 2.0 | 9.0 | 0.00 | 0.00 | 0.00 | 44 | 1013.8 |
| 20260504205901 | 68 | 139 | 6.0 | 11.0 | 0.00 | 0.00 | 0.00 | 45 | 1013.9 |
| 20260504205359 | 68 | 161 | 9.0 | 10.0 | 0.00 | 0.00 | 0.00 | 44 | 1013.9 |
| 20260504204857 | 69 | 209 | 3.0 | 8.0 | 0.00 | 0.00 | 0.00 | 44 | 1013.8 |
| 20260504204355 | 69 | 157 | 6.0 | 13.0 | 0.00 | 0.00 | 0.00 | 44 | 1014.0 |
| 20260504203854 | 70 | 214 | 5.0 | 8.0 | 0.00 | 0.00 | 0.00 | 42 | 1013.8 |
| 20260504203350 | 70 | 180 | 5.0 | 8.0 | 0.00 | 0.00 | 0.00 | 43 | 1013.9 |
| 20260504202847 | 70 | 169 | 4.0 | 9.0 | 0.00 | 0.00 | 0.00 | 43 | 1013.8 |
| 20260504202344 | 69 | 142 | 2.0 | 8.0 | 0.00 | 0.00 | 0.00 | 46 | 1014.0 |
| 20260504201840 | 69 | 170 | 3.0 | 9.0 | 0.00 | 0.00 | 0.00 | 48 | 1014.1 |
| 20260504201338 | 69 | 178 | 4.0 | 5.0 | 0.00 | 0.00 | 0.00 | 51 | 1013.7 |
| 20260504200835 | 68 | 129 | 5.0 | 9.0 | 0.00 | 0.00 | 0.00 | 52 | 1013.7 |
| 20260504200331 | 68 | 163 | 6.0 | 8.0 | 0.00 | 0.00 | 0.00 | 52 | 1013.9 |
| 20260504195828 | 68 | 176 | 4.0 | 10.0 | 0.00 | 0.00 | 0.00 | 51 | 1013.9 |
| 20260504195323 | 69 | 119 | 3.0 | 12.0 | 0.00 | 0.00 | 0.00 | 51 | 1014.2 |
| 20260504194821 | 69 | 162 | 5.0 | 10.0 | 0.00 | 0.00 | 0.00 | 49 | 1014.2 |
| 20260504194316 | 69 | 168 | 5.0 | 11.0 | 0.00 | 0.00 | 0.00 | 46 | 1014.3 |
| 20260504193812 | 70 | 174 | 5.0 | 9.0 | 0.00 | 0.00 | 0.00 | 46 | 1013.9 |
| 20260504193310 | 70 | 170 | 9.0 | 10.0 | 0.00 | 0.00 | 0.00 | 48 | 1014.0 |
| 20260504192809 | 69 | 141 | 5.0 | 13.0 | 0.00 | 0.00 | 0.00 | 48 | 1014.1 |
| 20260504192306 | 70 | 159 | 2.0 | 13.0 | 0.00 | 0.00 | 0.00 | 47 | 1014.3 |
| 20260504191805 | 69 | 159 | 4.0 | 10.0 | 0.00 | 0.00 | 0.00 | 47 | 1014.4 |
| 20260504191301 | 70 | 180 | 6.0 | 16.0 | 0.00 | 0.00 | 0.00 | 47 | 1014.5 |
| 20260504190757 | 70 | 127 | 6.0 | 8.0 | 0.00 | 0.00 | 0.00 | 46 | 1014.4 |
| 20260504190253 | 70 | 188 | 6.0 | 10.0 | 0.00 | 0.00 | 0.00 | 46 | 1014.4 |
| 20260504185750 | 70 | 151 | 6.0 | 10.0 | 0.00 | 0.00 | 0.00 | 46 | 1014.6 |
| 20260504185247 | 69 | 179 | 6.0 | 15.0 | 0.00 | 0.00 | 0.00 | 47 | 1014.5 |
| 20260504184743 | 69 | 161 | 6.0 | 11.0 | 0.00 | 0.00 | 0.00 | 48 | 1014.7 |
| 20260504184239 | 69 | 131 | 3.0 | 7.0 | 0.00 | 0.00 | 0.00 | 48 | 1014.6 |
| 20260504183735 | 70 | 193 | 3.0 | 7.0 | 0.00 | 0.00 | 0.00 | 48 | 1014.7 |
| 20260504183232 | 70 | 109 | 3.0 | 8.0 | 0.00 | 0.00 | 0.00 | 48 | 1014.8 |
| 20260504182730 | 69 | 116 | 3.0 | 8.0 | 0.00 | 0.00 | 0.00 | 51 | 1014.9 |
| 20260504182227 | 69 | 158 | 5.0 | 7.0 | 0.00 | 0.00 | 0.00 | 49 | 1014.9 |
| 20260504181725 | 69 | 109 | 7.0 | 9.0 | 0.00 | 0.00 | 0.00 | 51 | 1015.1 |
| 20260504181222 | 70 | 162 | 4.0 | 8.0 | 0.00 | 0.00 | 0.00 | 50 | 1015.3 |
| 20260504180721 | 70 | 153 | 4.0 | 7.0 | 0.00 | 0.00 | 0.00 | 48 | 1015.3 |
| 20260504180219 | 69 | 181 | 5.0 | 11.0 | 0.00 | 0.00 | 0.00 | 49 | 1015.4 |
| 20260504175716 | 70 | 157 | 5.0 | 10.0 | 0.00 | 0.00 | 0.00 | 48 | 1015.3 |
| 20260504175213 | 71 | 195 | 4.0 | 6.0 | 0.00 | 0.00 | 0.00 | 47 | 1015.4 |
| 20260504174711 | 70 | 126 | 6.0 | 17.0 | 0.00 | 0.00 | 0.00 | 51 | 1015.5 |
| 20260504174209 | 72 | 174 | 3.0 | 6.0 | 0.00 | 0.00 | 0.00 | 36 | 1015.5 |
| 20260504173704 | 74 | 184 | 3.0 | 6.0 | 0.00 | 0.00 | 0.00 | 28 | 1015.6 |
| 20260504173202 | 72 | 119 | 7.0 | 9.0 | 0.00 | 0.00 | 0.00 | 38 | 1015.5 |
| 20260504172658 | 74 | 291 | 1.0 | 9.0 | 0.00 | 0.00 | 0.00 | 26 | 1015.8 |
| 20260504172155 | 73 | 168 | 2.0 | 6.0 | 0.00 | 0.00 | 0.00 | 28 | 1015.5 |
| 20260504171651 | 74 | 177 | 3.0 | 6.0 | 0.00 | 0.00 | 0.00 | 28 | 1015.6 |
| 20260504171149 | 74 | 165 | 3.0 | 7.0 | 0.00 | 0.00 | 0.00 | 28 | 1015.8 |
| 20260504170645 | 73 | 228 | 4.0 | 6.0 | 0.00 | 0.00 | 0.00 | 27 | 1015.8 |
| 20260504170143 | 73 | 161 | 3.0 | 6.0 | 0.00 | 0.00 | 0.00 | 27 | 1015.9 |
| 20260504151028 | 71 | 257 | 1.0 | 5.0 | 0.00 | 0.00 | 0.00 | 33 | 1017.1 |
| 20260504150525 | 69 | 201 | 3.0 | 7.0 | 0.00 | 0.00 | 0.00 | 34 | 1017.2 |
| 20260504140951 | 67 | 161 | 4.0 | 11.0 | 0.00 | 0.00 | 0.00 | 33 | 1017.6 |
| 20260504140447 | 67 | 160 | 7.0 | 9.0 | 0.00 | 0.00 | 0.00 | 33 | 1017.6 |
| 20260504130412 | 64 | 185 | 6.0 | 7.0 | 0.00 | 0.00 | 0.00 | 43 | 1018.1 |
| 20260504110259 | 53 | 162 | 3.0 | 6.0 | 0.00 | 0.00 | 0.00 | 66 | 1019.0 |
| 20260504100217 | 48 | 151 | 2.0 | 5.0 | 0.00 | 0.00 | 0.00 | 69 | 1018.8 |
| 20260504090140 | 49 | 196 | 2.0 | 5.0 | 0.00 | 0.00 | 0.00 | 66 | 1018.8 |
| 20260504081610 | 48 | 208 | 2.0 | 3.0 | 0.00 | 0.00 | 0.00 | 63 | 1018.5 |
| 20260504081106 | 48 | 117 | 2.0 | 2.0 | 0.00 | 0.00 | 0.00 | 63 | 1018.7 |
| 20260504080603 | 48 | 170 | 3.0 | 3.0 | 0.00 | 0.00 | 0.00 | 64 | 1018.7 |
| 20260504050415 | 48 | 128 | 2.0 | 2.0 | 0.00 | 0.00 | 0.00 | 52 | 1018.2 |
| 20260504045912 | 49 | 229 | 1.0 | 5.0 | 0.00 | 0.00 | 0.00 | 51 | 1017.9 |
| 20260504045408 | 48 | 215 | 0.0 | 2.0 | 0.00 | 0.00 | 0.00 | 52 | 1017.9 |
| 20260504044905 | 48 | 124 | 2.0 | 2.0 | 0.00 | 0.00 | 0.00 | 53 | 1017.9 |
| 20260504044402 | 48 | 122 | 3.0 | 4.0 | 0.00 | 0.00 | 0.00 | 53 | 1017.9 |
| 20260504043900 | 48 | 164 | 2.0 | 3.0 | 0.00 | 0.00 | 0.00 | 51 | 1017.8 |
| 20260504043356 | 48 | 173 | 0.0 | 3.0 | 0.00 | 0.00 | 0.00 | 52 | 1017.8 |
| 20260504042854 | 48 | 114 | 0.0 | 4.0 | 0.00 | 0.00 | 0.00 | 52 | 1017.6 |
| 20260504042350 | 48 | 167 | 3.0 | 4.0 | 0.00 | 0.00 | 0.00 | 51 | 1017.6 |
| 20260504041846 | 48 | 119 | 2.0 | 4.0 | 0.00 | 0.00 | 0.00 | 52 | 1017.6 |
| 20260504041343 | 48 | 117 | 1.0 | 2.0 | 0.00 | 0.00 | 0.00 | 51 | 1017.8 |
| 20260504040838 | 48 | 152 | 2.0 | 4.0 | 0.00 | 0.00 | 0.00 | 50 | 1017.5 |
| 20260504040337 | 47 | 115 | 2.0 | 3.0 | 0.00 | 0.00 | 0.00 | 52 | 1017.6 |
| 20260504035832 | 48 | 157 | 1.0 | 3.0 | 0.00 | 0.00 | 0.00 | 52 | 1017.6 |
| 20260504035330 | 48 | 148 | 1.0 | 2.0 | 0.00 | 0.00 | 0.00 | 51 | 1017.6 |